Regional Weather Roundup
Issued by NWS Goodland, KS

Home | Current Version | Previous Version | Graphics & Text | Print | Product List | Glossary On
Versions: 1 2 3 4 5 6 7 8 9 10 11 12 13 14 15 16 17 18 19 20 21 22 23 24 25 26 27 28 29 30 31 32 33 34 35 36 37 38 39 40 41 42 43 44 45 46 47 48 49 50
000
ASUS43 KGLD 310208
RWRGLD

GOODLAND FORECAST AREA HOURLY WEATHER ROUNDUP
NATIONAL WEATHER SERVICE GOODLAND KS
800 PM MDT SAT AUG 30 2014

...OFFICIAL OBSERVATIONS...

CITY           SKY/WX    TMP DP  RH WIND       PRES   REMARKS
GOODLAND KS    CLEAR     77  56  48 SE14      29.87R
HILL CITY KS   CLEAR     79  57  46 S10       29.84R
IMPERIAL NEB   CLEAR     76  55  48 S10       29.82S
MCCOOK NEB     CLEAR     79  54  41 S12       29.81S
AKRON CO       PTCLDY    74  48  39 S10       29.89S
BURLINGTON CO  CLEAR     73  47  39 S10       29.89S
LIMON CO       CLOUDY    72  42  34 S7        29.97R
$$

...UNOFFICIAL OBSERVATIONS...

CITY           SKY/WX    TMP DP  RH WIND       PRES   REMARKS
COLBY KS       CLEAR     79  61  53 SE13      29.87S
GOVE KS          N/A     80  32  17 CALM        N/A
NORTON KS      CLEAR     79  54  41 SE9       29.82S
SHARON SPRINGS   N/A     77  57  50 SE15G26     N/A
KIT CARSON CO    N/A     76  45  32 CALM        N/A
YUMA CO          N/A     68  54  61 CALM        N/A
$$


USA.gov is the U.S. government's official web portal to all federal, state and local government web resources and services.